千帆星座-156(QIANFAN-156)

导读

QIANFAN-156(NORAD编号69115)是中国千帆星座(Qianfan/Spacesail星座)中的一颗低轨商业组网卫星,由上海垣信卫星科技有限公司主导建设运营。千帆星座远期规划规模达15000颗卫星,旨在构建低轨商业卫星互联网,面向企业和政府提供宽带服务,QIANFAN-156作为组网批次卫星之一,运行于近地轨道,助力星座实现区域网络覆盖目标,支撑后续海事、农业等领域商业应用测试与示范运营。

Basic Information
目录编号:
69115
目录名称:
QIANFAN-156
国际标识:
2026-108M
轨道中心:
EARTH
卫星名称:
千帆星座-156
卫星全名:
千帆星座-156(QIANFAN-156)
卫星状态:
在轨 (已飞行117 天)
发射日期:
2026-05-17 UTC
国别 :
中国 (CN)
星等 :
--
This satellite is enrolled in the Space Conjunction Data Service (SCDS) and the current flight risk assessment level is: No High Risk
Orbit Information
数据来源 国际轨道数据 AOE轨道数据
星历时间 2026-09-11T15:40:37+0800
7小时前
查看轨道信息
2026-09-07T05:00:00+0800
4天前
查看轨道信息
半长轴 7446.638km 7446.643km
偏心率 0.0001849 0.0001942
轨道倾角 89.020° 89.019°
近地点辐角 105.845° 105.393°
升交点赤经 13.419° 13.860°
平近点角 254.290° 249.167°
近地点 1067.124km 1067.059km
远地点 1069.878km 1069.953km
周期 106.586分钟 106.586分钟
每日圈数 13.510221 13.510208
Detailed Information
卫星平台:
156
覆盖范围:
全球
运营商:
上海垣信卫星科技有限公司
运营商所在国:
中国
使用方式:
暂无
Satellite Introduction
千帆星座,也被称为“G60星链”计划,是中国版“星链”的重要组成部分,旨在打造一个由1.4万多颗低轨宽频多媒体卫星构成的庞大星座。千帆星座计划由上海垣信卫星科技有限公司负责实施,于2023年启动建设。该项目是我国第二个低轨卫星大星座,旨在通过构建庞大的卫星网络,为全球用户提供高质量的通信和宽带互联网服务。
2D Orbit Map
3D Orbit Map
Orbit Altitude Analysis Chart
Orbit Inclination Analysis Chart
Orbit Comprehensive Analysis Chart
View Comprehensive Chart
Conjunction Data List
Event ID Objects TCA Miss Dist (km) Collision Risk Probability Collision Risk Index (CRI) Action
CDM_260911-131504-584706-911524
2026-09-11T
13:15:24+0000
1.518 km
极远距离
5.371586E-6 低风险 0.5
CDM_260911-131304-255206-911525
2026-09-11T
13:13:32+0000
1.827 km
极远距离
3.618217E-6 低风险 0.46
CDM_260905-175500-359206-911524
2026-09-05T
17:55:10+0000
1.909 km
极远距离
2.528969E-6 低风险 0.43
CDM_260905-235406-499006-911523
2026-09-05T
23:54:51+0000
2.734 km
极远距离
1.460979E-6 低风险 0.38
Miss Distance Evolution Trend with All Objects
Collision Probability Evolution Trend with All Objects